Theta_e
307 299 295 298 300 300 300 297 295 298 303 298 298 299 300 301 301 302 301 302 303 304 307 308 309 310 309 310 312 316 318 322 324 324 325 326 326 326 327 329 329 329 328 326
302 295 300 303 304 302 299 296 295 299 302 298 298 298 299 300 299 300 301 302 304 305 306 307 309 310 310 311 311 312 315 319 322 324 325 326 327 328 329 330 330 330 329 328
297 298 304 305 301 300 298 295 296 296 299 301 297 296 296 300 302 303 304 305 305 305 306 307 308 309 310 311 311 313 313 314 320 322 324 324 325 325 324 326 327 328 329 329
298 302 303 301 300 300 294 300 300 299 295 290 297 287 293 298 300 301 301 303 304 304 306 307 308 308 309 311 313 313 313 313 315 319 321 321 320 320 323 324 325 327 328 329
295 298 299 299 300 301 298 302 298 297 293 292 293 289 292 298 297 300 301 303 304 304 305 306 308 310 311 311 310 311 312 313 314 313 313 315 320 321 323 324 323 323 325 329
298 302 301 301 302 302 302 297 297 295 292 286 289 289 289 295 298 300 302 303 305 305 305 307 309 310 309 310 310 309 309 309 310 313 316 315 313 314 316 317 318 319 321 323
296 296 297 300 296 298 297 292 287 285 285 286 290 288 291 297 301 302 302 303 304 305 304 305 306 307 308 308 308 309 309 308 309 309 309 309 311 315 317 318 319 319 320 321
292 289 296 299 297 295 294 293 289 284 285 286 291 287 293 299 301 302 304 305 305 304 304 305 306 306 306 308 308 309 309 309 309 309 308 308 308 309 311 313 314 316 318 321
294 292 298 299 298 296 295 292 294 291 291 287 291 294 297 299 298 299 301 304 303 303 303 304 305 306 306 306 307 308 308 308 309 308 308 308 308 308 307 308 308 310 311 313
299 291 297 297 298 296 292 295 289 291 283 281 288 289 290 294 295 298 300 301 303 304 304 304 305 306 306 306 307 307 308 308 308 308 308 309 309 309 309 308 307 308 308 309
301 298 294 296 294 293 292 291 291 290 289 284 282 287 295 296 298 297 300 303 303 302 303 304 304 305 306 306 306 306 306 307 307 308 308 307 308 309 309 308 309 309 309 309
301 298 292 293 296 299 295 293 294 287 286 287 284 286 298 298 300 302 302 304 302 303 304 304 304 305 305 305 306 305 305 305 306 307 307 307 308 308 307 307 308 309 309 310
302 297 290 290 293 296 294 296 295 294 293 289 284 286 298 298 300 302 301 302 302 303 303 304 303 304 303 304 306 305 305 306 307 307 307 307 306 306 306 307 308 309 308 308
303 296 292 288 290 294 292 295 296 293 288 288 290 291 296 298 299 300 299 302 301 302 302 301 301 300 301 302 304 305 305 306 306 306 305 304 305 304 304 305 305 306 306 306
301 293 294 294 295 294 293 293 294 293 294 288 292 293 297 298 299 301 301 301 301 301 301 300 300 299 300 302 304 304 304 303 301 301 302 302 303 303 302 302 302 303 304 304
298 291 291 289 293 291 290 292 292 293 294 294 294 293 300 301 299 300 298 301 301 300 300 300 300 299 301 301 302 301 300 299 300 298 299 301 300 300 300 300 300 301 301 302
294 291 288 284 290 290 286 291 292 293 294 293 289 295 299 297 300 300 300 300 301 299 298 298 299 301 300 299 299 296 296 296 297 296 297 297 296 295 296 297 297 297 297 297
293 291 290 285 287 279 292 297 297 294 296 296 296 297 298 299 300 300 300 298 300 298 298 299 298 298 297 297 296 294 293 293 293 293 292 293 293 292 293 293 293 293 294 294
293 291 286 284 285 289 293 296 294 292 292 297 296 297 298 299 296 296 300 299 298 298 298 297 296 295 294 293 291 291 290 290 290 289 289 290 290 290 290 290 290 290 291 292
295 292 288 282 280 281 291 296 299 296 286 298 298 298 298 296 289 292 297 300 298 299 299 295 293 293 291 289 289 287 287 286 285 286 286 287 288 288 287 288 288 288 290 290
288 288 285 285 283 288 297 297 298 286 289 298 299 299 299 294 294 296 298 298 297 295 294 294 293 289 287 287 286 284 283 282 284 285 285 285 286 286 286 286 287 287 287 288
289 286 285 287 283 280 298 297 291 296 298 299 300 298 295 296 298 298 297 295 294 293 292 290 288 286 285 285 283 281 280 283 284 284 284 284 284 285 285 284 285 285 285 285
286 292 289 291 289 298 298 297 300 299 299 298 298 298 298 298 297 296 294 293 293 291 288 286 285 284 283 284 282 280 281 283 283 283 282 283 283 283 284 283 283 283 284 284
293 297 292 292 293 295 298 301 297 297 296 297 297 297 297 296 295 295 293 292 291 288 285 284 283 282 281 282 282 281 282 282 282 281 281 282 282 283 283 283 283 283 282 283
293 295 293 292 296 298 299 298 296 295 294 294 294 295 295 294 292 291 291 290 286 285 283 283 281 281 280 280 280 281 282 282 281 281 281 281 282 281 281 282 282 282 284 286
295 293 290 290 295 295 296 297 294 294 294 294 292 289 291 292 291 291 289 286 284 282 282 281 280 279 279 279 280 281 282 282 280 280 280 281 281 281 281 281 281 286 288 289
Wind_Speed
11 8 12 12 13 13 9 8 10 5 7 2 8 10 1 5 9 5 9 10 10 10 9 10 10 11 11 10 9 6 8 9 6 5 5 4 6 3 4 6 9 10 11 12
12 12 11 13 11 3 7 7 8 2 4 2 8 6 4 4 4 6 10 10 9 8 9 8 9 9 10 10 10 9 8 4 6 4 4 4 5 7 7 7 11 13 12 11
13 12 9 6 5 4 6 6 5 4 1 8 6 6 7 4 9 10 9 8 7 8 8 8 9 9 9 9 9 9 8 9 4 5 3 3 3 3 3 5 4 5 7 8
11 1 9 7 6 7 6 2 2 5 6 3 7 2 6 7 7 9 8 6 7 8 8 7 8 8 8 8 7 7 7 7 7 7 1 5 4 4 4 5 5 6 9 12
4 9 8 6 7 2 2 2 2 4 6 6 6 1 7 11 8 8 8 7 7 7 7 7 7 7 7 8 8 8 8 8 8 8 6 4 4 4 4 4 6 7 7 11
5 2 4 1 4 1 0 4 6 5 3 3 3 2 5 10 10 9 7 7 7 7 7 7 6 6 6 6 7 8 9 8 9 8 7 6 7 7 5 5 5 5 4 5
5 4 3 2 4 3 5 4 1 2 2 4 3 1 8 6 12 11 10 9 6 8 6 6 6 6 7 9 9 8 9 8 8 8 8 8 8 7 7 7 5 6 4 4
5 3 7 5 2 4 8 2 2 4 3 2 2 4 3 10 10 10 9 8 7 7 6 6 6 6 6 7 8 8 8 7 8 8 8 8 8 5 5 6 6 5 4 5
7 4 3 4 3 3 3 3 1 4 1 1 4 4 5 10 9 10 8 8 7 6 5 6 5 4 5 6 6 6 7 6 7 8 7 7 7 7 6 7 6 4 5 6
4 7 3 2 3 1 2 4 1 3 2 4 4 3 4 8 8 9 9 7 7 6 7 5 4 4 3 3 3 6 6 6 6 7 6 5 7 7 7 7 7 7 7 7
5 3 3 3 5 2 2 2 3 1 0 1 1 4 5 6 8 10 8 7 7 7 6 3 2 1 0 4 5 5 6 7 7 7 7 8 7 8 8 8 9 10 10 10
1 2 4 2 2 2 1 3 7 2 1 3 3 8 5 9 9 8 7 7 7 7 5 4 2 2 4 3 5 7 8 8 7 7 8 8 8 7 7 7 8 9 10 10
3 1 5 2 2 3 2 2 3 6 2 4 3 6 1 7 8 6 8 7 7 6 4 3 3 3 5 6 7 7 8 7 7 8 7 7 7 7 7 8 9 10 11 11
2 2 3 3 5 2 3 2 3 3 3 4 9 9 9 5 6 5 3 7 8 7 7 2 4 6 7 7 7 7 7 7 7 7 7 7 7 7 8 9 10 11 11 12
3 2 5 5 3 2 5 8 8 10 13 7 14 13 14 11 12 12 4 7 5 5 6 7 6 6 6 7 8 8 7 8 10 9 8 9 7 8 9 11 12 13 13 12
4 1 3 3 7 4 7 11 11 14 17 15 16 20 17 15 3 3 4 6 6 6 7 6 6 8 9 8 7 7 8 8 9 7 9 9 9 9 10 10 12 12 12 13
2 1 3 4 4 4 10 13 14 10 11 8 13 16 9 4 5 5 5 2 5 8 7 7 8 8 6 6 6 7 8 9 10 9 11 10 12 12 12 12 12 12 11 12
2 3 1 4 4 4 8 5 6 5 7 10 11 9 6 1 4 5 6 2 6 8 9 9 6 6 6 7 7 7 9 9 9 10 9 11 12 13 13 13 13 13 13 13
3 2 3 3 4 8 11 5 2 1 5 7 7 9 2 6 5 7 6 11 10 9 7 6 6 6 6 6 7 7 7 7 8 8 10 11 12 13 13 14 14 13 14 11
1 3 2 4 3 6 2 5 7 4 6 4 6 6 5 6 2 1 7 9 9 8 6 7 7 6 6 6 6 5 6 6 6 9 10 11 11 12 13 13 14 13 12 15
3 3 7 6 4 7 9 10 4 1 4 2 3 5 4 4 3 6 8 9 9 7 7 6 5 4 4 5 4 6 6 6 7 9 10 11 11 13 13 14 13 12 15 14
7 6 5 3 4 7 3 6 2 4 4 2 4 3 2 4 7 8 8 7 8 6 5 4 2 3 4 4 4 5 6 8 9 10 12 13 12 11 12 14 11 14 13 16
5 6 2 7 7 4 1 3 6 10 7 7 7 4 5 4 7 7 6 6 5 3 2 2 3 4 5 5 5 7 8 9 10 10 11 11 12 11 12 12 13 13 12 12
5 7 6 7 2 5 10 12 9 8 5 6 6 6 6 4 6 5 4 2 1 0 2 3 4 5 6 5 6 6 8 8 9 11 11 11 11 14 11 10 10 11 12 11
4 8 5 7 12 12 9 5 5 2 4 3 3 3 2 4 5 5 4 3 1 2 3 4 5 5 6 6 7 7 8 8 9 10 11 11 10 11 12 11 11 11 10 12
6 9 4 8 9 11 11 8 3 5 5 5 5 4 4 3 3 3 1 1 1 2 3 4 5 6 6 7 8 9 8 7 9 11 9 9 10 10 11 11 12 17 21 24
Wind_Direction
193 194 198 197 214 238 305 314 229 226 139 215 241 251 254 21 14 46 50 49 40 42 33 28 19 7 3 355 347 249 198 199 171 169 170 183 213 227 229 222 225 217 220 220
175 210 195 223 218 195 285 285 274 18 102 132 282 304 88 77 89 70 77 62 54 51 43 34 36 27 9 1 353 351 327 232 195 171 186 175 186 219 220 222 226 224 224 222
169 200 205 153 115 183 256 280 345 23 226 222 269 256 118 128 104 84 86 87 68 63 53 35 34 34 21 11 357 352 348 349 278 179 161 217 240 273 251 252 268 254 240 241
179 185 161 149 180 212 208 96 310 317 319 257 171 229 149 142 111 108 92 78 82 61 53 42 39 37 25 2 359 354 353 0 360 353 230 200 209 239 235 240 231 230 214 221
107 164 149 159 205 162 127 310 285 301 290 302 210 175 198 141 143 128 128 119 92 93 69 44 44 51 34 12 2 360 21 22 9 1 354 328 267 244 254 254 260 254 238 221
96 67 128 168 95 19 103 246 231 248 237 266 112 140 215 178 159 131 130 113 107 84 73 51 42 51 40 17 16 24 33 22 18 13 352 330 314 307 304 299 301 291 285 254
111 90 71 283 129 213 234 276 229 240 189 223 128 293 248 167 145 152 148 137 114 100 83 64 36 37 32 28 18 22 27 20 12 15 9 1 352 341 327 317 301 305 296 294
139 145 175 171 269 227 200 309 312 322 354 113 174 235 238 145 118 113 125 131 118 71 66 75 37 44 44 41 29 18 22 21 12 9 5 359 1 358 341 340 334 323 320 312
132 92 85 27 347 339 139 232 314 309 172 49 234 241 100 130 130 130 168 135 118 98 89 82 77 61 61 46 31 25 14 13 12 4 356 357 356 357 342 335 335 326 322 325
50 113 185 150 259 191 6 324 246 254 212 239 240 251 234 153 160 162 164 143 122 93 88 76 68 57 37 56 15 11 19 5 359 356 349 342 340 343 335 342 345 344 332 330
3 114 128 171 208 143 159 249 245 334 336 255 305 265 346 67 168 172 130 102 94 95 108 112 79 110 179 23 20 12 8 13 7 355 358 349 346 345 356 354 352 348 340 336
115 35 136 105 61 16 352 295 184 189 233 225 112 276 5 103 77 79 112 140 127 129 132 131 160 325 25 1 9 25 21 15 8 5 353 342 344 354 348 341 336 336 327 325
6 338 123 114 349 3 297 282 326 339 70 248 179 260 67 112 134 182 206 147 131 139 146 111 48 40 17 22 44 27 18 3 4 355 350 344 345 347 339 336 336 331 326 321
257 36 54 94 103 68 175 218 221 239 231 227 233 275 268 224 193 238 323 131 143 153 151 145 45 29 12 17 33 24 10 5 354 344 344 341 343 342 339 333 327 324 320 316
34 54 52 11 347 276 266 264 238 217 235 229 260 267 279 302 306 304 112 118 104 133 90 57 42 14 2 34 22 19 4 357 350 342 344 332 341 339 336 331 325 322 318 313
14 120 87 268 250 262 269 262 256 249 258 258 265 273 272 288 37 27 17 136 146 129 86 56 28 22 29 27 16 10 3 347 335 342 336 326 342 338 326 319 315 311 309 313
126 40 48 254 72 354 278 254 232 234 247 235 247 254 281 298 232 214 211 193 175 119 83 55 50 44 24 6 10 12 350 342 336 342 327 349 340 329 323 317 315 310 311 315
137 131 95 274 327 216 246 218 215 267 255 240 263 277 289 82 6 16 40 68 36 74 63 55 42 26 18 4 6 3 355 337 339 326 347 340 329 323 322 319 319 317 318 310
219 196 232 209 219 302 291 311 220 217 294 289 297 295 343 71 29 335 100 82 82 74 73 59 40 19 352 8 8 356 335 331 322 344 336 326 321 318 319 320 318 318 310 316
270 220 214 66 203 236 255 103 59 22 281 34 47 18 100 79 354 153 80 78 77 70 62 54 28 5 9 2 354 342 316 315 322 329 322 317 318 316 316 312 314 311 311 312
149 196 215 227 244 284 266 123 121 107 250 306 335 318 179 174 170 127 82 71 71 73 62 45 23 17 344 328 342 319 317 307 317 318 317 318 318 315 315 314 313 316 313 310
181 181 200 200 217 267 344 67 151 254 303 214 218 220 190 96 105 91 77 74 68 57 48 45 360 329 313 326 338 323 315 311 323 325 325 322 319 319 317 312 313 311 316 305
266 209 217 177 215 231 102 323 6 357 355 7 17 20 99 102 79 74 68 63 60 68 48 20 340 328 336 337 342 325 309 318 323 321 316 312 313 314 313 317 318 312 310 315
271 263 250 336 281 322 328 328 44 31 20 25 59 68 61 97 112 127 132 137 200 287 7 346 335 325 312 325 323 298 308 318 319 311 310 313 316 316 315 311 308 313 307 308
242 330 285 291 298 298 289 71 61 85 120 103 59 25 7 113 118 144 170 178 136 330 345 337 324 306 311 316 302 298 308 311 310 312 314 315 314 313 310 307 306 301 301 315
209 242 237 256 304 304 296 312 78 33 5 147 132 99 50 35 131 130 149 100 37 5 319 300 295 299 297 301 304 306 309 309 313 312 311 307 310 307 306 304 304 304 307 309